Flag for Brazil Weather past 2 weeks in São Paulo, São Paulo, Brazil

Now
75 °F

Passing clouds.


Feels Like: 77 °F
Forecast: 72 / 82 °F
Wind: 12 mph from North

Location: Sao Paulo Airport

Current Time: Dec 21, 2014 at 10:55:30 PM

Latest Report: Dec 21, 2014 at 10:00 PM


Visibility: N/A

Pressure: 29.95 "Hg

Humidity: 74%

Dew point: 66 °F

Location of São PauloLocation

Historic Weather in São Paulo — Graph

°F

São Paulo temperature yesterday

Maximum temperature yesterday: 86 °F (at 2:00 PM)
Minimum temperature yesterday: 70 °F (at 12:00 AM)
Average temperature yesterday: 77 °F

Past Weeks' High & Low Weather Summary

 TemperatureHumidityPressure
High88 °F (Dec 8, 4:00 PM)100% (Dec 11, 6:00 PM)30.15 "Hg (Dec 11, 6:00 PM)
Low32 °F (Dec 12, 7:00 PM)31% (Dec 18, 12:00 PM)29.83 "Hg (Dec 13, 5:00 PM)
Average72 °F70%30.01 "Hg
* Reported Dec 6 9:00 PM — Dec 21 9:00 PM, São Paulo, Weather by CustomWeather, © 2014

Note: Actual official high and low records may vary slightly from our data, if they occured in-between our weather recording intervals... More about our weather records

Advertising

São Paulo weather history for previous 24 hours

 ConditionsComfort  
Time TempWeatherWind HumidityBarometerVisibility
9:00 PM
Dec 21
77 °FPassing clouds.17 mph65%29.92 "HgN/A
8:00 PM81 °FClear.15 mph58%29.89 "Hg10 mi
7:00 PM81 °FPassing clouds.17 mph54%29.89 "HgN/A
6:00 PM82 °FPassing clouds.15 mph55%29.86 "HgN/A
5:00 PM86 °FScattered clouds.18 mph49%29.86 "HgN/A
4:00 PM84 °FPartly sunny.21 mph48%29.86 "HgN/A
3:00 PM86 °FPartly sunny.21 mph46%29.89 "HgN/A
2:00 PM86 °FScattered clouds.18 mph46%29.92 "HgN/A
1:00 PM84 °FScattered clouds.21 mph48%29.98 "HgN/A
12:00 PM82 °FPartly sunny.20 mph55%29.98 "HgN/A
11:00 AM81 °FPartly sunny.17 mph58%29.98 "HgN/A
10:00 AM81 °FSunny.16 mph58%29.98 "Hg10 mi
9:00 AM79 °FSunny.10 mph61%29.98 "Hg10 mi
8:00 AM77 °FSunny.9 mph65%29.95 "Hg10 mi
7:00 AM75 °FSunny.9 mph69%29.92 "Hg10 mi
6:00 AM73 °FClear.7 mph74%29.92 "Hg10 mi
5:00 AM75 °FClear.10 mph69%29.89 "Hg10 mi
4:00 AM75 °FClear.9 mph69%29.92 "Hg10 mi
3:00 AM75 °FClear.9 mph74%29.92 "Hg10 mi
2:00 AM75 °FClear.10 mph69%29.95 "Hg10 mi
1:00 AM77 °FClear.10 mph65%29.95 "Hg10 mi
12:00 AM79 °FClear.14 mph61%29.95 "Hg10 mi
11:00 PM
Dec 20
79 °FClear.12 mph61%29.95 "Hg10 mi
10:00 PM81 °FPassing clouds.9 mph58%29.92 "HgN/A
Weather by CustomWeather, © 2014

See weather overviewHow to use our weather pages